Total_Precipitation_Accumulation
0.00 0.00 0.00 0.00 0.00 0.00 0.00 0.00 0.01 0.02 0.06 0.09 0.08 0.05 0.05 0.02 0.00 0.01 0.01 0.00 0.00 0.00 0.00 0.00 0.00 0.00 0.00 0.00 0.00 0.00 0.00 0.00 0.00 0.00 0.00 0.00 0.00 0.00 0.00 0.00 0.00 0.00 0.00 0.00 0.00
0.00 0.00 0.00 0.00 0.00 0.00 0.00 0.00 0.01 0.01 0.02 0.03 0.04 0.06 0.06 0.02 0.00 0.01 0.00 0.00 0.00 0.01 0.01 0.00 0.00 0.00 0.00 0.00 0.00 0.00 0.00 0.00 0.00 0.00 0.00 0.00 0.00 0.00 0.00 0.00 0.00 0.00 0.00 0.00 0.00
0.00 0.00 0.00 0.00 0.01 0.02 0.02 0.02 0.02 0.02 0.03 0.04 0.05 0.07 0.09 0.02 0.00 0.00 0.00 0.00 0.00 0.00 0.02 0.01 0.00 0.01 0.00 0.00 0.00 0.00 0.00 0.00 0.00 0.00 0.00 0.00 0.00 0.00 0.00 0.00 0.00 0.00 0.00 0.00 0.00
0.00 0.00 0.00 0.00 0.00 0.01 0.03 0.04 0.03 0.02 0.02 0.03 0.05 0.09 0.11 0.05 0.00 0.00 0.00 0.00 0.00 0.00 0.04 0.03 0.01 0.01 0.00 0.00 0.00 0.00 0.00 0.00 0.00 0.00 0.00 0.00 0.00 0.00 0.00 0.00 0.00 0.00 0.00 0.00 0.00
0.00 0.00 0.00 0.00 0.00 0.00 0.02 0.04 0.06 0.06 0.06 0.09 0.13 0.16 0.12 0.05 0.00 0.00 0.00 0.00 0.00 0.00 0.03 0.04 0.02 0.00 0.00 0.00 0.00 0.00 0.00 0.00 0.00 0.00 0.00 0.00 0.00 0.00 0.00 0.00 0.00 0.00 0.00 0.00 0.00
0.00 0.00 0.00 0.00 0.00 0.00 0.01 0.03 0.05 0.05 0.08 0.06 0.12 0.23 0.07 0.01 0.00 0.00 0.00 0.00 0.00 0.00 0.03 0.06 0.03 0.00 0.00 0.00 0.00 0.00 0.00 0.00 0.00 0.00 0.00 0.00 0.00 0.00 0.00 0.00 0.00 0.00 0.00 0.00 0.00
0.00 0.01 0.00 0.00 0.00 0.00 0.00 0.00 0.02 0.09 0.19 0.18 0.17 0.24 0.06 0.00 0.00 0.00 0.00 0.00 0.00 0.01 0.03 0.02 0.03 0.00 0.00 0.00 0.00 0.00 0.00 0.00 0.00 0.00 0.00 0.00 0.00 0.00 0.00 0.00 0.00 0.00 0.00 0.00 0.00
0.04 0.02 0.01 0.00 0.00 0.01 0.04 0.04 0.03 0.06 0.09 0.12 0.32 0.32 0.03 0.00 0.00 0.00 0.00 0.00 0.00 0.01 0.09 0.14 0.19 0.03 0.00 0.00 0.00 0.00 0.00 0.00 0.00 0.00 0.00 0.00 0.00 0.00 0.00 0.00 0.00 0.00 0.00 0.00 0.00
0.04 0.03 0.05 0.05 0.06 0.04 0.03 0.05 0.06 0.08 0.15 0.33 0.33 0.21 0.03 0.00 0.00 0.00 0.00 0.00 0.00 0.00 0.09 0.17 0.25 0.08 0.01 0.00 0.01 0.00 0.00 0.00 0.00 0.00 0.00 0.00 0.00 0.00 0.00 0.00 0.00 0.00 0.00 0.00 0.00
0.00 0.02 0.09 0.19 0.16 0.10 0.10 0.09 0.11 0.15 0.25 0.26 0.20 0.23 0.02 0.00 0.00 0.00 0.00 0.00 0.03 0.04 0.13 0.25 0.19 0.08 0.03 0.03 0.03 0.00 0.00 0.00 0.00 0.00 0.00 0.00 0.00 0.00 0.00 0.00 0.00 0.00 0.00 0.00 0.00
0.01 0.03 0.04 0.12 0.21 0.31 0.32 0.38 0.14 0.16 0.09 0.05 0.09 0.07 0.01 0.01 0.00 0.00 0.00 0.00 0.03 0.07 0.08 0.25 0.25 0.13 0.02 0.01 0.00 0.00 0.00 0.00 0.00 0.00 0.00 0.00 0.00 0.00 0.00 0.00 0.00 0.00 0.00 0.00 0.00
0.02 0.04 0.10 0.13 0.18 0.26 0.24 0.18 0.10 0.06 0.06 0.04 0.01 0.01 0.07 0.04 0.02 0.01 0.01 0.02 0.05 0.03 0.09 0.28 0.22 0.02 0.00 0.00 0.00 0.00 0.00 0.00 0.00 0.00 0.00 0.00 0.00 0.00 0.00 0.00 0.00 0.00 0.00 0.00 0.00
0.02 0.07 0.20 0.25 0.28 0.35 0.30 0.24 0.28 0.14 0.16 0.10 0.01 0.00 0.04 0.07 0.04 0.03 0.03 0.09 0.04 0.01 0.05 0.12 0.13 0.02 0.01 0.00 0.01 0.00 0.00 0.00 0.00 0.00 0.00 0.00 0.00 0.00 0.00 0.00 0.00 0.00 0.00 0.00 0.00
0.03 0.14 0.33 0.47 0.52 0.26 0.49 0.49 0.30 0.32 0.32 0.10 0.05 0.01 0.06 0.10 0.08 0.07 0.07 0.17 0.05 0.01 0.05 0.11 0.09 0.03 0.03 0.01 0.00 0.01 0.00 0.00 0.00 0.00 0.00 0.00 0.00 0.00 0.00 0.00 0.00 0.00 0.00 0.00 0.00
0.03 0.15 0.40 0.87 0.91 0.44 0.48 0.41 0.39 0.71 0.31 0.02 0.05 0.06 0.11 0.11 0.11 0.12 0.17 0.23 0.03 0.01 0.06 0.12 0.09 0.08 0.05 0.01 0.00 0.00 0.00 0.00 0.00 0.00 0.00 0.00 0.00 0.00 0.00 0.00 0.00 0.00 0.00 0.00 0.00
0.01 0.09 0.38 0.94 1.12 0.72 0.55 0.52 0.69 0.91 0.36 0.08 0.13 0.13 0.16 0.13 0.16 0.12 0.40 0.30 0.11 0.01 0.02 0.09 0.03 0.06 0.06 0.00 0.00 0.00 0.01 0.01 0.00 0.00 0.00 0.00 0.00 0.00 0.00 0.00 0.00 0.00 0.00 0.00 0.00
0.00 0.01 0.11 0.50 1.00 1.09 0.83 0.74 0.75 0.47 0.19 0.16 0.13 0.14 0.15 0.11 0.20 0.22 0.51 0.48 0.38 0.06 0.07 0.10 0.02 0.01 0.07 0.02 0.01 0.02 0.01 0.07 0.03 0.00 0.00 0.00 0.00 0.00 0.00 0.00 0.00 0.00 0.00 0.00 0.00
0.00 0.02 0.03 0.12 0.92 1.04 0.97 0.69 0.48 0.19 0.21 0.14 0.08 0.11 0.14 0.11 0.20 0.34 0.43 0.32 0.20 0.00 0.01 0.05 0.08 0.02 0.03 0.03 0.02 0.03 0.02 0.01 0.00 0.00 0.00 0.00 0.00 0.00 0.00 0.00 0.00 0.00 0.00 0.00 0.00
0.01 0.01 0.02 0.02 0.60 1.09 0.98 0.68 0.26 0.07 0.14 0.11 0.08 0.12 0.14 0.15 0.26 0.39 0.43 0.17 0.08 0.00 0.00 0.01 0.00 0.00 0.00 0.00 0.01 0.04 0.01 0.00 0.00 0.00 0.00 0.00 0.00 0.00 0.00 0.00 0.00 0.00 0.00 0.00 0.00
0.00 0.00 0.00 0.04 0.43 1.00 0.94 0.52 0.25 0.22 0.06 0.02 0.03 0.08 0.06 0.14 0.26 0.34 0.37 0.15 0.06 0.00 0.00 0.00 0.00 0.00 0.00 0.00 0.00 0.00 0.00 0.00 0.00 0.00 0.00 0.00 0.00 0.00 0.00 0.00 0.00 0.00 0.00 0.00 0.00
0.00 0.00 0.01 0.20 0.43 0.92 0.78 0.50 0.21 0.13 0.04 0.04 0.01 0.01 0.01 0.03 0.19 0.18 0.18 0.07 0.02 0.00 0.00 0.00 0.00 0.00 0.00 0.00 0.00 0.00 0.01 0.00 0.00 0.00 0.00 0.00 0.00 0.00 0.00 0.00 0.00 0.00 0.00 0.00 0.00
0.00 0.00 0.04 0.21 0.43 0.48 0.72 0.61 0.20 0.05 0.13 0.07 0.01 0.00 0.00 0.01 0.10 0.09 0.05 0.01 0.00 0.00 0.00 0.00 0.00 0.00 0.00 0.00 0.00 0.00 0.00 0.00 0.00 0.00 0.00 0.00 0.00 0.00 0.00 0.00 0.00 0.00 0.00 0.00 0.00
0.00 0.01 0.11 0.14 0.38 0.37 0.52 0.42 0.21 0.14 0.10 0.05 0.01 0.01 0.00 0.00 0.03 0.02 0.05 0.00 0.00 0.00 0.00 0.00 0.00 0.00 0.01 0.00 0.00 0.00 0.00 0.00 0.00 0.00 0.00 0.00 0.00 0.00 0.00 0.00 0.00 0.00 0.00 0.00 0.00
0.00 0.00 0.05 0.06 0.12 0.26 0.29 0.26 0.27 0.19 0.05 0.02 0.01 0.01 0.00 0.00 0.00 0.00 0.04 0.00 0.00 0.00 0.00 0.00 0.00 0.00 0.01 0.00 0.00 0.00 0.00 0.00 0.00 0.00 0.00 0.00 0.00 0.00 0.00 0.00 0.00 0.00 0.00 0.00 0.00
0.00 0.00 0.01 0.01 0.03 0.11 0.15 0.16 0.18 0.23 0.08 0.02 0.03 0.02 0.01 0.00 0.00 0.00 0.01 0.00 0.00 0.00 0.00 0.00 0.00 0.00 0.00 0.00 0.00 0.00 0.00 0.00 0.00 0.00 0.00 0.00 0.00 0.00 0.00 0.00 0.00 0.00 0.00 0.00 0.00
0.00 0.00 0.00 0.00 0.00 0.02 0.09 0.16 0.13 0.10 0.05 0.02 0.02 0.02 0.00 0.00 0.00 0.00 0.00 0.00 0.00 0.00 0.00 0.00 0.00 0.00 0.00 0.00 0.00 0.00 0.00 0.00 0.00 0.00 0.00 0.00 0.00 0.00 0.00 0.00 0.00 0.00 0.00 0.00 0.00
0.00 0.00 0.00 0.00 0.00 0.00 0.02 0.07 0.09 0.06 0.05 0.01 0.01 0.00 0.01 0.00 0.00 0.00 0.00 0.00 0.00 0.00 0.00 0.00 0.00 0.00 0.00 0.00 0.00 0.00 0.00 0.00 0.00 0.00 0.00 0.00 0.00 0.00 0.00 0.00 0.00 0.00 0.00 0.00 0.00